This demonstration page uses our WeatherBlox Daily Observations layout. Learn more.

Left ArrowRight Arrow

Hourly Observations for January 9, 2016

Temp ( °F °C ) Dew Point ( °F °C ) Humidity (%) Winds ( mph kmh ) Pressure ( in mb ) Visibility ( mi km ) Precip ( " mm )
12:51 am 00:51 Cloudy 37 2.8 35 1.7 93 93 N N/A 30.09 1019 10 16 N/A
1:51 am 01:51 Cloudy 37 2.8 35 1.7 93 93 ENE 3 6 30.07 1018 10 16 N/A
2:51 am 02:51 Cloudy 37 2.8 36 2.2 96 96 N N/A 30.09 1019 10 16 N/A
3:51 am 03:51 Cloudy 37 2.8 35 1.7 93 93 ENE 5 7 30.09 1019 10 16 N/A
4:51 am 04:51 Cloudy 38 3.3 36 2.2 93 93 ESE 3 6 30.08 1019 10 16 N/A
5:51 am 05:51 Cloudy 37 2.8 35 1.7 93 93 N N/A 30.10 1019 10 16 N/A
6:51 am 06:51 Mostly Cloudy 36 2.2 34 1.1 93 93 N N/A 30.12 1020 10 16 N/A
7:51 am 07:51 Cloudy 36 2.2 35 1.7 97 97 N N/A 30.14 1021 10 16 N/A
8:42 am 08:42 Cloudy 37 2.8 35 1.7 93 93 N N/A 30.24 1024 10 16 N/A
8:51 am 08:51 Cloudy 37 2.8 35 1.7 93 93 ESE 3 6 30.16 1021 10 16 N/A
9:07 am 09:07 Cloudy 37 2.8 35 1.7 93 93 N N/A 30.27 1025 10 16 N/A
9:28 am 09:28 Cloudy 38 3.3 36 2.2 93 93 N N/A 30.27 1025 10 16 N/A
9:51 am 09:51 Cloudy 39 3.9 36 2.2 89 89 N N/A 30.19 1022 10 16 N/A
10:02 am 10:02 Cloudy 39 3.9 36 2.2 89 89 N N/A 30.24 1024 10 16 N/A
10:17 am 10:17 Cloudy 40 4.4 37 2.8 89 89 N N/A 30.24 1024 10 16 N/A
10:38 am 10:38 Cloudy 41 5 37 2.8 86 86 N N/A 30.27 1025 10 16 N/A
10:51 am 10:51 Mostly Cloudy 41 5 37 2.8 86 86 WSW 3 6 30.19 1023 10 16 N/A
11:51 am 11:51 Mostly Cloudy 45 7.2 37 2.8 74 74 W 5 7 30.16 1022 10 16 N/A
12:51 pm 12:51 Cloudy 47 8.3 35 1.7 63 63 NNW 12 19 30.14 1021 10 16 N/A
1:51 pm 13:51 Mostly Cloudy 49 9.4 31 -0.6 50 50 W 14 22 30.11 1020 10 16 N/A
2:51 pm 14:51 Mostly Cloudy 48 8.9 32 undefined 54 54 NNW 14 22 30.10 1019 10 16 N/A
3:51 pm 15:51 Mostly Cloudy 49 9.4 29 -1.7 46 46 WNW 12 19 30.09 1019 10 16 N/A
4:51 pm 16:51 Mostly Sunny 47 8.3 31 -0.6 54 54 NNW 8 13 30.10 1019 10 16 N/A
5:51 pm 17:51 Clear 43 6.1 31 -0.6 63 63 N 7 11 30.12 1020 10 16 N/A
6:30 pm 18:30 Hazy 41 5 32 undefined 70 70 N 5 7 30.21 1023 1 1 N/A
6:33 pm 18:33 Hazy 41 5 32 undefined 70 70 N 5 7 30.21 1023 3 5 N/A
6:51 pm 18:51 Clear 41 5 31 -0.6 67 67 N N/A 30.14 1021 10 16 N/A
7:51 pm 19:51 Clear 41 5 30 -1.1 65 65 W 6 9 30.14 1021 10 16 N/A
8:51 pm 20:51 Clear 38 3.3 31 -0.6 76 76 N N/A 30.16 1022 10 16 N/A
9:51 pm 21:51 Clear 33 0.6 30 -1.1 89 89 N N/A 30.17 1022 10 16 N/A
10:51 pm 22:51 Clear 32 undefined 30 -1.1 92 92 N N/A 30.17 1022 10 16 N/A
11:51 pm 23:51 Clear 32 undefined 29 -1.7 88 88 NNE 5 7 30.16 1021 10 16 N/A

Powered by AerisWeather